owner,sensor,date,latitude,longitude,vertical_datum,sea_water_practical_salinity,qcFlag 
TCOON,ioos:station:TCOON:042:1,2013-01-07T18:30:00Z,27.8888,-97.5696,0.0,36.1,1111122 
TCOON,ioos:station:TCOON:042:1,2013-01-07T19:00:00Z,27.8888,-97.5696,0.0,36.4,1111122 
TCOON,ioos:station:TCOON:042:1,2013-01-07T19:30:00Z,27.8888,-97.5696,0.0,36.8,1111122 
TCOON,ioos:station:TCOON:042:1,2013-01-07T20:00:00Z,27.8888,-97.5696,0.0,36.7,1111122 
TCOON,ioos:station:TCOON:042:1,2013-01-07T21:30:00Z,27.8888,-97.5696,0.0,36.7,1111122 
TCOON,ioos:station:TCOON:042:1,2013-01-07T22:00:00Z,27.8888,-97.5696,0.0,36.7,1111122 
TCOON,ioos:station:TCOON:042:1,2013-01-07T22:30:00Z,27.8888,-97.5696,0.0,35.9,1111122 
TCOON,ioos:station:TCOON:042:1,2013-01-08T00:30:00Z,27.8888,-97.5696,0.0,35.9,1111122 
TCOON,ioos:station:TCOON:042:1,2013-01-08T01:30:00Z,27.8888,-97.5696,0.0,36.0,1111122 
TCOON,ioos:station:TCOON:042:1,2013-01-08T02:00:00Z,27.8888,-97.5696,0.0,36.5,1111122 
TCOON,ioos:station:TCOON:042:1,2013-01-08T02:30:00Z,27.8888,-97.5696,0.0,37.4,1111122 
TCOON,ioos:station:TCOON:042:1,2013-01-08T04:30:00Z,27.8888,-97.5696,0.0,42.7,1111122 
TCOON,ioos:station:TCOON:042:1,2013-01-08T06:30:00Z,27.8888,-97.5696,0.0,43.2,1111122 
TCOON,ioos:station:TCOON:042:1,2013-01-08T07:00:00Z,27.8888,-97.5696,0.0,43.2,1111122 
TCOON,ioos:station:TCOON:042:1,2013-01-08T08:30:00Z,27.8888,-97.5696,0.0,42.9,1111122 
TCOON,ioos:station:TCOON:042:1,2013-01-08T09:00:00Z,27.8888,-97.5696,0.0,42.6,1111122 
TCOON,ioos:station:TCOON:042:1,2013-01-08T11:00:00Z,27.8888,-97.5696,0.0,42.3,1111122 
TCOON,ioos:station:TCOON:042:1,2013-01-08T12:00:00Z,27.8888,-97.5696,0.0,42.5,1111122 
TCOON,ioos:station:TCOON:042:1,2013-01-08T12:30:00Z,27.8888,-97.5696,0.0,42.6,1111122 
TCOON,ioos:station:TCOON:042:1,2013-01-08T13:30:00Z,27.8888,-97.5696,0.0,42.6,1111122 
TCOON,ioos:station:TCOON:042:1,2013-01-08T14:00:00Z,27.8888,-97.5696,0.0,41.8,1111122 
TCOON,ioos:station:TCOON:042:1,2013-01-08T14:30:00Z,27.8888,-97.5696,0.0,42.3,1111122 
TCOON,ioos:station:TCOON:042:1,2013-01-08T15:00:00Z,27.8888,-97.5696,0.0,42.3,1111122 
TCOON,ioos:station:TCOON:042:1,2013-01-08T16:00:00Z,27.8888,-97.5696,0.0,42.3,1111122 
TCOON,ioos:station:TCOON:042:1,2013-01-08T16:30:00Z,27.8888,-97.5696,0.0,41.9,1111122 
TCOON,ioos:station:TCOON:042:1,2013-01-08T18:00:00Z,27.8888,-97.5696,0.0,39.1,1111122 
TCOON,ioos:station:TCOON:042:1,2013-01-08T19:30:00Z,27.8888,-97.5696,0.0,41.8,1111122 
TCOON,ioos:station:TCOON:042:1,2013-01-08T20:00:00Z,27.8888,-97.5696,0.0,40.6,1111122 
TCOON,ioos:station:TCOON:042:1,2013-01-08T22:00:00Z,27.8888,-97.5696,0.0,41.5,1111122 
TCOON,ioos:station:TCOON:042:1,2013-01-08T22:30:00Z,27.8888,-97.5696,0.0,38.6,1111122 
TCOON,ioos:station:TCOON:042:1,2013-01-08T23:00:00Z,27.8888,-97.5696,0.0,41.7,1111122 
TCOON,ioos:station:TCOON:042:1,2013-01-09T00:30:00Z,27.8888,-97.5696,0.0,42.1,1111122 
TCOON,ioos:station:TCOON:042:1,2013-01-09T01:30:00Z,27.8888,-97.5696,0.0,42.1,1111122 
TCOON,ioos:station:TCOON:042:1,2013-01-09T02:00:00Z,27.8888,-97.5696,0.0,42.3,1111122 
TCOON,ioos:station:TCOON:042:1,2013-01-09T02:30:00Z,27.8888,-97.5696,0.0,42.1,1111122 
TCOON,ioos:station:TCOON:042:1,2013-01-09T03:00:00Z,27.8888,-97.5696,0.0,42.5,1111122 
TCOON,ioos:station:TCOON:042:1,2013-01-09T04:00:00Z,27.8888,-97.5696,0.0,42.7,1111122 
TCOON,ioos:station:TCOON:042:1,2013-01-09T05:30:00Z,27.8888,-97.5696,0.0,42.7,1111122 
TCOON,ioos:station:TCOON:042:1,2013-01-09T07:00:00Z,27.8888,-97.5696,0.0,42.9,1111122 
TCOON,ioos:station:TCOON:042:1,2013-01-09T08:00:00Z,27.8888,-97.5696,0.0,43.0,1111122 
TCOON,ioos:station:TCOON:042:1,2013-01-09T08:30:00Z,27.8888,-97.5696,0.0,43.0,1111122 
TCOON,ioos:station:TCOON:042:1,2013-01-09T09:00:00Z,27.8888,-97.5696,0.0,43.0,1111122 
TCOON,ioos:station:TCOON:042:1,2013-01-09T09:30:00Z,27.8888,-97.5696,0.0,42.2,1111122 
TCOON,ioos:station:TCOON:042:1,2013-01-09T10:00:00Z,27.8888,-97.5696,0.0,42.5,1111122 
TCOON,ioos:station:TCOON:042:1,2013-01-09T10:30:00Z,27.8888,-97.5696,0.0,42.8,1111122 
TCOON,ioos:station:TCOON:042:1,2013-01-09T11:00:00Z,27.8888,-97.5696,0.0,42.7,1111122 
TCOON,ioos:station:TCOON:042:1,2013-01-09T12:00:00Z,27.8888,-97.5696,0.0,42.6,1111122 
TCOON,ioos:station:TCOON:042:1,2013-01-09T13:00:00Z,27.8888,-97.5696,0.0,42.2,1111122 
TCOON,ioos:station:TCOON:042:1,2013-01-09T13:30:00Z,27.8888,-97.5696,0.0,42.1,1111122 
TCOON,ioos:station:TCOON:042:1,2013-01-09T14:30:00Z,27.8888,-97.5696,0.0,41.8,1111122 
TCOON,ioos:station:TCOON:042:1,2013-01-09T15:30:00Z,27.8888,-97.5696,0.0,41.2,1111122 
TCOON,ioos:station:TCOON:042:1,2013-01-09T17:00:00Z,27.8888,-97.5696,0.0,39.2,1111122 
TCOON,ioos:station:TCOON:042:1,2013-01-09T17:30:00Z,27.8888,-97.5696,0.0,41.6,1111122 
TCOON,ioos:station:TCOON:042:1,2013-01-09T18:00:00Z,27.8888,-97.5696,0.0,41.5,1111122 
TCOON,ioos:station:TCOON:042:1,2013-01-09T19:30:00Z,27.8888,-97.5696,0.0,33.2,1111122 
TCOON,ioos:station:TCOON:042:1,2013-01-09T20:00:00Z,27.8888,-97.5696,0.0,39.7,1111122 
TCOON,ioos:station:TCOON:042:1,2013-01-09T20:30:00Z,27.8888,-97.5696,0.0,34.6,1111122 
TCOON,ioos:station:TCOON:042:1,2013-01-09T21:00:00Z,27.8888,-97.5696,0.0,40.6,1111122 
TCOON,ioos:station:TCOON:042:1,2013-01-09T22:00:00Z,27.8888,-97.5696,0.0,39.9,1111122 
TCOON,ioos:station:TCOON:042:1,2013-01-09T23:00:00Z,27.8888,-97.5696,0.0,39.4,1111122 
TCOON,ioos:station:TCOON:042:1,2013-01-10T00:00:00Z,27.8888,-97.5696,0.0,37.1,1111122 
TCOON,ioos:station:TCOON:042:1,2013-01-10T01:00:00Z,27.8888,-97.5696,0.0,35.3,1111122 
TCOON,ioos:station:TCOON:042:1,2013-01-10T01:30:00Z,27.8888,-97.5696,0.0,38.7,1111122 
TCOON,ioos:station:TCOON:042:1,2013-01-10T02:00:00Z,27.8888,-97.5696,0.0,39.6,1111122 
TCOON,ioos:station:TCOON:042:1,2013-01-10T03:30:00Z,27.8888,-97.5696,0.0,39.9,1111122 
TCOON,ioos:station:TCOON:042:1,2013-01-10T04:00:00Z,27.8888,-97.5696,0.0,40.2,1111122 
TCOON,ioos:station:TCOON:042:1,2013-01-10T04:30:00Z,27.8888,-97.5696,0.0,40.6,1111122 
TCOON,ioos:station:TCOON:042:1,2013-01-10T05:00:00Z,27.8888,-97.5696,0.0,40.8,1111122 
TCOON,ioos:station:TCOON:042:1,2013-01-10T05:30:00Z,27.8888,-97.5696,0.0,40.7,1111122 
TCOON,ioos:station:TCOON:042:1,2013-01-10T06:00:00Z,27.8888,-97.5696,0.0,39.6,1111122 
TCOON,ioos:station:TCOON:042:1,2013-01-10T06:30:00Z,27.8888,-97.5696,0.0,39.2,1111122 
TCOON,ioos:station:TCOON:042:1,2013-01-10T07:00:00Z,27.8888,-97.5696,0.0,40.9,1111122 
TCOON,ioos:station:TCOON:042:1,2013-01-10T07:30:00Z,27.8888,-97.5696,0.0,38.9,1111122 
TCOON,ioos:station:TCOON:042:1,2013-01-10T14:00:00Z,27.8888,-97.5696,0.0,42.2,1111122 
TCOON,ioos:station:TCOON:042:1,2013-01-10T17:00:00Z,27.8888,-97.5696,0.0,38.5,1111122 
TCOON,ioos:station:TCOON:042:1,2013-01-10T18:00:00Z,27.8888,-97.5696,0.0,36.5,1111122 
TCOON,ioos:station:TCOON:042:1,2013-01-10T19:00:00Z,27.8888,-97.5696,0.0,37.5,1111122 
TCOON,ioos:station:TCOON:042:1,2013-01-10T19:30:00Z,27.8888,-97.5696,0.0,37.2,1111122 
TCOON,ioos:station:TCOON:042:1,2013-01-10T20:30:00Z,27.8888,-97.5696,0.0,36.6,1111122 
TCOON,ioos:station:TCOON:042:1,2013-01-10T22:00:00Z,27.8888,-97.5696,0.0,30.4,1111122 
TCOON,ioos:station:TCOON:042:1,2013-01-10T22:30:00Z,27.8888,-97.5696,0.0,32.6,1111122 
TCOON,ioos:station:TCOON:042:1,2013-01-10T23:30:00Z,27.8888,-97.5696,0.0,32.2,1111122 
TCOON,ioos:station:TCOON:042:1,2013-01-11T00:30:00Z,27.8888,-97.5696,0.0,33.0,1111122 
TCOON,ioos:station:TCOON:042:1,2013-01-11T01:00:00Z,27.8888,-97.5696,0.0,30.8,1111122 
TCOON,ioos:station:TCOON:042:1,2013-01-11T01:30:00Z,27.8888,-97.5696,0.0,31.6,1111122 
TCOON,ioos:station:TCOON:042:1,2013-01-11T03:00:00Z,27.8888,-97.5696,0.0,32.6,1111122 
TCOON,ioos:station:TCOON:042:1,2013-01-11T03:30:00Z,27.8888,-97.5696,0.0,33.0,1111122 
TCOON,ioos:station:TCOON:042:1,2013-01-11T04:00:00Z,27.8888,-97.5696,0.0,33.0,1111122 
TCOON,ioos:station:TCOON:042:1,2013-01-11T06:30:00Z,27.8888,-97.5696,0.0,36.7,1111122 
TCOON,ioos:station:TCOON:042:1,2013-01-11T07:30:00Z,27.8888,-97.5696,0.0,39.8,1111122 
TCOON,ioos:station:TCOON:042:1,2013-01-11T08:00:00Z,27.8888,-97.5696,0.0,40.3,1111122 
TCOON,ioos:station:TCOON:042:1,2013-01-11T10:00:00Z,27.8888,-97.5696,0.0,39.2,1111122 
TCOON,ioos:station:TCOON:042:1,2013-01-11T10:30:00Z,27.8888,-97.5696,0.0,41.1,1111122 
TCOON,ioos:station:TCOON:042:1,2013-01-11T11:00:00Z,27.8888,-97.5696,0.0,41.3,1111122 
TCOON,ioos:station:TCOON:042:1,2013-01-11T14:00:00Z,27.8888,-97.5696,0.0,36.2,1111122 
TCOON,ioos:station:TCOON:042:1,2013-01-11T15:00:00Z,27.8888,-97.5696,0.0,40.9,1111122 
TCOON,ioos:station:TCOON:042:1,2013-01-11T16:30:00Z,27.8888,-97.5696,0.0,39.0,1111122 
TCOON,ioos:station:TCOON:042:1,2013-01-11T17:00:00Z,27.8888,-97.5696,0.0,39.7,1111122 
TCOON,ioos:station:TCOON:042:1,2013-01-11T17:30:00Z,27.8888,-97.5696,0.0,37.6,1111122 
TCOON,ioos:station:TCOON:042:1,2013-01-11T18:00:00Z,27.8888,-97.5696,0.0,39.8,1111122 
TCOON,ioos:station:TCOON:042:1,2013-01-11T19:00:00Z,27.8888,-97.5696,0.0,39.6,1111122 
TCOON,ioos:station:TCOON:042:1,2013-01-11T23:30:00Z,27.8888,-97.5696,0.0,40.1,1111122 
TCOON,ioos:station:TCOON:042:1,2013-01-12T01:30:00Z,27.8888,-97.5696,0.0,39.5,1111122 
TCOON,ioos:station:TCOON:042:1,2013-01-12T02:00:00Z,27.8888,-97.5696,0.0,39.0,1111122 
TCOON,ioos:station:TCOON:042:1,2013-01-12T05:00:00Z,27.8888,-97.5696,0.0,34.5,1111122 
TCOON,ioos:station:TCOON:042:1,2013-01-12T05:30:00Z,27.8888,-97.5696,0.0,35.2,1111122 
TCOON,ioos:station:TCOON:042:1,2013-01-12T08:30:00Z,27.8888,-97.5696,0.0,41.1,1111122 
TCOON,ioos:station:TCOON:042:1,2013-01-12T10:00:00Z,27.8888,-97.5696,0.0,40.9,1111122 
TCOON,ioos:station:TCOON:042:1,2013-01-12T11:00:00Z,27.8888,-97.5696,0.0,40.6,1111122 
TCOON,ioos:station:TCOON:042:1,2013-01-12T18:00:00Z,27.8888,-97.5696,0.0,39.6,1111122 
TCOON,ioos:station:TCOON:042:1,2013-01-12T19:00:00Z,27.8888,-97.5696,0.0,40.2,1111122 
TCOON,ioos:station:TCOON:042:1,2013-01-12T19:30:00Z,27.8888,-97.5696,0.0,40.2,1111122 
TCOON,ioos:station:TCOON:042:1,2013-01-12T21:00:00Z,27.8888,-97.5696,0.0,40.2,1111122 
TCOON,ioos:station:TCOON:042:1,2013-01-13T00:30:00Z,27.8888,-97.5696,0.0,40.9,1111122 
TCOON,ioos:station:TCOON:042:1,2013-01-13T01:00:00Z,27.8888,-97.5696,0.0,41.0,1111122 
TCOON,ioos:station:TCOON:042:1,2013-01-13T01:30:00Z,27.8888,-97.5696,0.0,40.8,1111122 
TCOON,ioos:station:TCOON:042:1,2013-01-13T02:30:00Z,27.8888,-97.5696,0.0,40.6,1111122 
TCOON,ioos:station:TCOON:042:1,2013-01-13T04:00:00Z,27.8888,-97.5696,0.0,40.6,1111122 
TCOON,ioos:station:TCOON:042:1,2013-01-13T04:30:00Z,27.8888,-97.5696,0.0,40.8,1111122 
TCOON,ioos:station:TCOON:042:1,2013-01-13T05:30:00Z,27.8888,-97.5696,0.0,40.7,1111122 
TCOON,ioos:station:TCOON:042:1,2013-01-13T12:00:00Z,27.8888,-97.5696,0.0,39.4,1111122 
TCOON,ioos:station:TCOON:042:1,2013-01-13T12:30:00Z,27.8888,-97.5696,0.0,40.1,1111122 
TCOON,ioos:station:TCOON:042:1,2013-01-13T16:30:00Z,27.8888,-97.5696,0.0,35.4,1111122 
TCOON,ioos:station:TCOON:042:1,2013-01-13T19:30:00Z,27.8888,-97.5696,0.0,34.2,1111122 
TCOON,ioos:station:TCOON:042:1,2013-01-13T23:00:00Z,27.8888,-97.5696,0.0,32.2,1111122 
TCOON,ioos:station:TCOON:042:1,2013-01-13T23:30:00Z,27.8888,-97.5696,0.0,30.9,1111122 
TCOON,ioos:station:TCOON:042:1,2013-01-14T01:00:00Z,27.8888,-97.5696,0.0,30.0,1111122 
TCOON,ioos:station:TCOON:042:1,2013-01-14T02:00:00Z,27.8888,-97.5696,0.0,31.2,1111122 
TCOON,ioos:station:TCOON:042:1,2013-01-14T05:00:00Z,27.8888,-97.5696,0.0,32.1,1111122 
TCOON,ioos:station:TCOON:042:1,2013-01-14T06:00:00Z,27.8888,-97.5696,0.0,32.5,1111122 
TCOON,ioos:station:TCOON:042:1,2013-01-14T06:30:00Z,27.8888,-97.5696,0.0,34.8,1111122 
TCOON,ioos:station:TCOON:042:1,2013-01-14T07:30:00Z,27.8888,-97.5696,0.0,36.2,1111122 
TCOON,ioos:station:TCOON:042:1,2013-01-14T08:30:00Z,27.8888,-97.5696,0.0,38.3,1111122 
TCOON,ioos:station:TCOON:042:1,2013-01-14T10:30:00Z,27.8888,-97.5696,0.0,34.3,1111122 
TCOON,ioos:station:TCOON:042:1,2013-01-14T11:30:00Z,27.8888,-97.5696,0.0,34.3,1111122 
TCOON,ioos:station:TCOON:042:1,2013-01-14T15:30:00Z,27.8888,-97.5696,0.0,35.0,1111122 
TCOON,ioos:station:TCOON:042:1,2013-01-14T16:30:00Z,27.8888,-97.5696,0.0,35.2,1111122 
TCOON,ioos:station:TCOON:042:1,2013-01-14T17:00:00Z,27.8888,-97.5696,0.0,37.2,1111122 
TCOON,ioos:station:TCOON:042:1,2013-01-14T18:00:00Z,27.8888,-97.5696,0.0,37.7,1111122 
TCOON,ioos:station:TCOON:042:1,2013-01-14T20:30:00Z,27.8888,-97.5696,0.0,35.5,1111122 
TCOON,ioos:station:TCOON:042:1,2013-01-14T21:30:00Z,27.8888,-97.5696,0.0,35.3,1111122 
TCOON,ioos:station:TCOON:042:1,2013-01-14T22:00:00Z,27.8888,-97.5696,0.0,36.2,1111122 
TCOON,ioos:station:TCOON:042:1,2013-01-14T22:30:00Z,27.8888,-97.5696,0.0,32.6,1111122 
TCOON,ioos:station:TCOON:042:1,2013-01-15T00:00:00Z,27.8888,-97.5696,0.0,36.9,1111122 
TCOON,ioos:station:TCOON:042:1,2013-01-15T01:00:00Z,27.8888,-97.5696,0.0,33.7,1111122 
TCOON,ioos:station:TCOON:042:1,2013-01-15T02:00:00Z,27.8888,-97.5696,0.0,34.3,1111122 
TCOON,ioos:station:TCOON:042:1,2013-01-15T03:30:00Z,27.8888,-97.5696,0.0,34.8,1111122 
TCOON,ioos:station:TCOON:042:1,2013-01-15T04:00:00Z,27.8888,-97.5696,0.0,33.2,1111122 
TCOON,ioos:station:TCOON:042:1,2013-01-15T06:00:00Z,27.8888,-97.5696,0.0,34.8,1111122 
TCOON,ioos:station:TCOON:042:1,2013-01-15T07:00:00Z,27.8888,-97.5696,0.0,33.9,1111122 
TCOON,ioos:station:TCOON:042:1,2013-01-15T07:30:00Z,27.8888,-97.5696,0.0,35.1,1111122 
TCOON,ioos:station:TCOON:042:1,2013-01-15T08:30:00Z,27.8888,-97.5696,0.0,34.8,1111122 
TCOON,ioos:station:TCOON:042:1,2013-01-15T09:30:00Z,27.8888,-97.5696,0.0,36.7,1111122 
TCOON,ioos:station:TCOON:042:1,2013-01-15T10:00:00Z,27.8888,-97.5696,0.0,29.0,1111122 
TCOON,ioos:station:TCOON:042:1,2013-01-15T11:00:00Z,27.8888,-97.5696,0.0,33.9,1111122 
TCOON,ioos:station:TCOON:042:1,2013-01-15T11:30:00Z,27.8888,-97.5696,0.0,33.2,1111122 
TCOON,ioos:station:TCOON:042:1,2013-01-15T12:00:00Z,27.8888,-97.5696,0.0,33.4,1111122 
TCOON,ioos:station:TCOON:042:1,2013-01-15T12:30:00Z,27.8888,-97.5696,0.0,36.5,1111122 
TCOON,ioos:station:TCOON:042:1,2013-01-15T13:00:00Z,27.8888,-97.5696,0.0,35.2,1111122 
TCOON,ioos:station:TCOON:042:1,2013-01-15T13:30:00Z,27.8888,-97.5696,0.0,33.4,1111122 
TCOON,ioos:station:TCOON:042:1,2013-01-15T14:00:00Z,27.8888,-97.5696,0.0,35.8,1111122 
TCOON,ioos:station:TCOON:042:1,2013-01-15T14:30:00Z,27.8888,-97.5696,0.0,35.3,1111122 
TCOON,ioos:station:TCOON:042:1,2013-01-15T18:00:00Z,27.8888,-97.5696,0.0,32.8,1111122 
TCOON,ioos:station:TCOON:042:1,2013-01-15T19:30:00Z,27.8888,-97.5696,0.0,33.8,1111122 
TCOON,ioos:station:TCOON:042:1,2013-01-15T20:30:00Z,27.8888,-97.5696,0.0,33.9,1111122 
TCOON,ioos:station:TCOON:042:1,2013-01-15T21:30:00Z,27.8888,-97.5696,0.0,32.3,1111122 
TCOON,ioos:station:TCOON:042:1,2013-01-15T22:30:00Z,27.8888,-97.5696,0.0,30.0,1111122 
TCOON,ioos:station:TCOON:042:1,2013-01-15T23:30:00Z,27.8888,-97.5696,0.0,32.1,1111122 
TCOON,ioos:station:TCOON:042:1,2013-01-16T01:30:00Z,27.8888,-97.5696,0.0,33.3,1111122 
TCOON,ioos:station:TCOON:042:1,2013-01-16T03:30:00Z,27.8888,-97.5696,0.0,30.2,1111122 
TCOON,ioos:station:TCOON:042:1,2013-01-16T08:30:00Z,27.8888,-97.5696,0.0,31.4,1111122 
TCOON,ioos:station:TCOON:042:1,2013-01-16T09:00:00Z,27.8888,-97.5696,0.0,29.4,1111122 
TCOON,ioos:station:TCOON:042:1,2013-01-16T09:30:00Z,27.8888,-97.5696,0.0,32.5,1111122 
TCOON,ioos:station:TCOON:042:1,2013-01-16T10:30:00Z,27.8888,-97.5696,0.0,30.9,1111122 
TCOON,ioos:station:TCOON:042:1,2013-01-16T11:00:00Z,27.8888,-97.5696,0.0,32.7,1111122 
TCOON,ioos:station:TCOON:042:1,2013-01-16T13:30:00Z,27.8888,-97.5696,0.0,30.2,1111122 
TCOON,ioos:station:TCOON:042:1,2013-01-16T15:00:00Z,27.8888,-97.5696,0.0,26.3,1111122 
TCOON,ioos:station:TCOON:042:1,2013-01-16T15:30:00Z,27.8888,-97.5696,0.0,27.0,1111122 
TCOON,ioos:station:TCOON:042:1,2013-01-16T16:30:00Z,27.8888,-97.5696,0.0,29.2,1111122 
TCOON,ioos:station:TCOON:042:1,2013-01-16T17:00:00Z,27.8888,-97.5696,0.0,27.0,1111122 
TCOON,ioos:station:TCOON:042:1,2013-01-16T19:30:00Z,27.8888,-97.5696,0.0,28.5,1111122 
TCOON,ioos:station:TCOON:042:1,2013-01-16T20:00:00Z,27.8888,-97.5696,0.0,30.3,1111122 
TCOON,ioos:station:TCOON:042:1,2013-01-16T21:00:00Z,27.8888,-97.5696,0.0,29.2,1111122 
TCOON,ioos:station:TCOON:042:1,2013-01-16T21:30:00Z,27.8888,-97.5696,0.0,30.6,1111122 
TCOON,ioos:station:TCOON:042:1,2013-01-16T22:00:00Z,27.8888,-97.5696,0.0,23.0,1111122 
TCOON,ioos:station:TCOON:042:1,2013-01-16T23:00:00Z,27.8888,-97.5696,0.0,25.0,1111122 
TCOON,ioos:station:TCOON:042:1,2013-01-17T00:30:00Z,27.8888,-97.5696,0.0,24.5,1111122 
TCOON,ioos:station:TCOON:042:1,2013-01-17T01:00:00Z,27.8888,-97.5696,0.0,22.6,1111122 
TCOON,ioos:station:TCOON:042:1,2013-01-17T02:00:00Z,27.8888,-97.5696,0.0,24.2,1111122 
TCOON,ioos:station:TCOON:042:1,2013-01-17T03:30:00Z,27.8888,-97.5696,0.0,22.6,1111122 
TCOON,ioos:station:TCOON:042:1,2013-01-17T04:00:00Z,27.8888,-97.5696,0.0,22.3,1111122 
TCOON,ioos:station:TCOON:042:1,2013-01-17T05:00:00Z,27.8888,-97.5696,0.0,21.6,1111122 
TCOON,ioos:station:TCOON:042:1,2013-01-17T05:30:00Z,27.8888,-97.5696,0.0,21.4,1111122 
TCOON,ioos:station:TCOON:042:1,2013-01-17T06:00:00Z,27.8888,-97.5696,0.0,19.7,1111122 
TCOON,ioos:station:TCOON:042:1,2013-01-17T06:30:00Z,27.8888,-97.5696,0.0,17.9,1111122 
TCOON,ioos:station:TCOON:042:1,2013-01-17T08:00:00Z,27.8888,-97.5696,0.0,18.5,1111122 
TCOON,ioos:station:TCOON:042:1,2013-01-17T08:30:00Z,27.8888,-97.5696,0.0,18.7,1111122 
TCOON,ioos:station:TCOON:042:1,2013-01-17T09:00:00Z,27.8888,-97.5696,0.0,15.8,1111122 
TCOON,ioos:station:TCOON:042:1,2013-01-17T10:00:00Z,27.8888,-97.5696,0.0,15.6,1111122 
TCOON,ioos:station:TCOON:042:1,2013-01-17T11:30:00Z,27.8888,-97.5696,0.0,14.2,1111122 
TCOON,ioos:station:TCOON:042:1,2013-01-17T12:30:00Z,27.8888,-97.5696,0.0,13.1,1111122 
TCOON,ioos:station:TCOON:042:1,2013-01-17T15:00:00Z,27.8888,-97.5696,0.0,12.4,1111122 
TCOON,ioos:station:TCOON:042:1,2013-01-17T15:30:00Z,27.8888,-97.5696,0.0,12.0,1111122 
TCOON,ioos:station:TCOON:042:1,2013-01-17T16:30:00Z,27.8888,-97.5696,0.0,11.7,1111122 
TCOON,ioos:station:TCOON:042:1,2013-01-17T17:00:00Z,27.8888,-97.5696,0.0,10.1,1111122 
TCOON,ioos:station:TCOON:042:1,2013-01-17T19:30:00Z,27.8888,-97.5696,0.0,9.8,1111122 
TCOON,ioos:station:TCOON:042:1,2013-01-17T20:00:00Z,27.8888,-97.5696,0.0,10.4,1111122 
TCOON,ioos:station:TCOON:042:1,2013-01-17T21:00:00Z,27.8888,-97.5696,0.0,12.6,1111122 
TCOON,ioos:station:TCOON:042:1,2013-01-17T21:30:00Z,27.8888,-97.5696,0.0,14.1,1111122 
TCOON,ioos:station:TCOON:042:1,2013-01-17T23:00:00Z,27.8888,-97.5696,0.0,16.8,1111122 
TCOON,ioos:station:TCOON:042:1,2013-01-17T23:30:00Z,27.8888,-97.5696,0.0,17.2,1111122 
TCOON,ioos:station:TCOON:042:1,2013-01-18T00:00:00Z,27.8888,-97.5696,0.0,18.0,1111122 
TCOON,ioos:station:TCOON:042:1,2013-01-18T01:00:00Z,27.8888,-97.5696,0.0,18.2,1111122 
TCOON,ioos:station:TCOON:042:1,2013-01-18T02:30:00Z,27.8888,-97.5696,0.0,16.8,1111122 
TCOON,ioos:station:TCOON:042:1,2013-01-18T03:00:00Z,27.8888,-97.5696,0.0,15.8,1111122 
TCOON,ioos:station:TCOON:042:1,2013-01-18T03:30:00Z,27.8888,-97.5696,0.0,17.2,1111122 
TCOON,ioos:station:TCOON:042:1,2013-01-18T04:00:00Z,27.8888,-97.5696,0.0,16.9,1111122 
TCOON,ioos:station:TCOON:042:1,2013-01-18T05:00:00Z,27.8888,-97.5696,0.0,18.2,1111122 
TCOON,ioos:station:TCOON:042:1,2013-01-18T05:30:00Z,27.8888,-97.5696,0.0,16.5,1111122 
TCOON,ioos:station:TCOON:042:1,2013-01-18T07:00:00Z,27.8888,-97.5696,0.0,17.3,1111122 
TCOON,ioos:station:TCOON:042:1,2013-01-18T07:30:00Z,27.8888,-97.5696,0.0,17.1,1111122 
TCOON,ioos:station:TCOON:042:1,2013-01-18T08:00:00Z,27.8888,-97.5696,0.0,13.9,1111122 
TCOON,ioos:station:TCOON:042:1,2013-01-18T08:30:00Z,27.8888,-97.5696,0.0,13.0,1111122 
TCOON,ioos:station:TCOON:042:1,2013-01-18T09:00:00Z,27.8888,-97.5696,0.0,12.9,1111122 
TCOON,ioos:station:TCOON:042:1,2013-01-18T09:30:00Z,27.8888,-97.5696,0.0,12.0,1111122 
TCOON,ioos:station:TCOON:042:1,2013-01-18T11:00:00Z,27.8888,-97.5696,0.0,14.1,1111122 
TCOON,ioos:station:TCOON:042:1,2013-01-18T11:30:00Z,27.8888,-97.5696,0.0,11.9,1111122 
TCOON,ioos:station:TCOON:042:1,2013-01-18T12:00:00Z,27.8888,-97.5696,0.0,11.9,1111122 
TCOON,ioos:station:TCOON:042:1,2013-01-18T12:30:00Z,27.8888,-97.5696,0.0,13.1,1111122 
TCOON,ioos:station:TCOON:042:1,2013-01-18T13:30:00Z,27.8888,-97.5696,0.0,13.9,1111122 
TCOON,ioos:station:TCOON:042:1,2013-01-18T14:00:00Z,27.8888,-97.5696,0.0,12.3,1111122 
TCOON,ioos:station:TCOON:042:1,2013-01-18T15:00:00Z,27.8888,-97.5696,0.0,12.0,1111122 
TCOON,ioos:station:TCOON:042:1,2013-01-18T16:00:00Z,27.8888,-97.5696,0.0,11.4,1111122 
TCOON,ioos:station:TCOON:042:1,2013-01-18T16:30:00Z,27.8888,-97.5696,0.0,12.5,1111122 
TCOON,ioos:station:TCOON:042:1,2013-01-18T17:00:00Z,27.8888,-97.5696,0.0,14.2,1111122 
TCOON,ioos:station:TCOON:042:1,2013-01-18T18:00:00Z,27.8888,-97.5696,0.0,21.6,1111122 
TCOON,ioos:station:TCOON:042:1,2013-01-18T19:00:00Z,27.8888,-97.5696,0.0,21.2,1111122 
TCOON,ioos:station:TCOON:042:1,2013-01-18T19:30:00Z,27.8888,-97.5696,0.0,23.0,1111122 
TCOON,ioos:station:TCOON:042:1,2013-01-18T21:00:00Z,27.8888,-97.5696,0.0,23.4,1111122 
TCOON,ioos:station:TCOON:042:1,2013-01-18T21:30:00Z,27.8888,-97.5696,0.0,22.9,1111122 
TCOON,ioos:station:TCOON:042:1,2013-01-18T22:00:00Z,27.8888,-97.5696,0.0,22.9,1111122 
TCOON,ioos:station:TCOON:042:1,2013-01-18T22:30:00Z,27.8888,-97.5696,0.0,22.8,1111122 
TCOON,ioos:station:TCOON:042:1,2013-01-18T23:30:00Z,27.8888,-97.5696,0.0,22.5,1111122 
TCOON,ioos:station:TCOON:042:1,2013-01-19T00:00:00Z,27.8888,-97.5696,0.0,22.6,1111122 
TCOON,ioos:station:TCOON:042:1,2013-01-19T01:30:00Z,27.8888,-97.5696,0.0,21.8,1111122 
TCOON,ioos:station:TCOON:042:1,2013-01-19T03:00:00Z,27.8888,-97.5696,0.0,21.1,1111122 
TCOON,ioos:station:TCOON:042:1,2013-01-19T04:00:00Z,27.8888,-97.5696,0.0,24.3,1111122 
TCOON,ioos:station:TCOON:042:1,2013-01-19T04:30:00Z,27.8888,-97.5696,0.0,24.9,1111122 
TCOON,ioos:station:TCOON:042:1,2013-01-19T05:30:00Z,27.8888,-97.5696,0.0,25.8,1111122 
TCOON,ioos:station:TCOON:042:1,2013-01-19T06:00:00Z,27.8888,-97.5696,0.0,25.9,1111122 
TCOON,ioos:station:TCOON:042:1,2013-01-19T06:30:00Z,27.8888,-97.5696,0.0,26.2,1111122 
TCOON,ioos:station:TCOON:042:1,2013-01-19T07:00:00Z,27.8888,-97.5696,0.0,26.6,1111122 
TCOON,ioos:station:TCOON:042:1,2013-01-19T08:00:00Z,27.8888,-97.5696,0.0,26.6,1111122 
TCOON,ioos:station:TCOON:042:1,2013-01-19T09:00:00Z,27.8888,-97.5696,0.0,21.9,1111122 
TCOON,ioos:station:TCOON:042:1,2013-01-19T09:30:00Z,27.8888,-97.5696,0.0,21.1,1111122 
TCOON,ioos:station:TCOON:042:1,2013-01-19T10:30:00Z,27.8888,-97.5696,0.0,20.9,1111122 
TCOON,ioos:station:TCOON:042:1,2013-01-19T11:00:00Z,27.8888,-97.5696,0.0,20.2,1111122 
TCOON,ioos:station:TCOON:042:1,2013-01-19T11:30:00Z,27.8888,-97.5696,0.0,21.3,1111122 
TCOON,ioos:station:TCOON:042:1,2013-01-19T12:30:00Z,27.8888,-97.5696,0.0,20.7,1111122 
TCOON,ioos:station:TCOON:042:1,2013-01-19T14:00:00Z,27.8888,-97.5696,0.0,19.2,1111122 
TCOON,ioos:station:TCOON:042:1,2013-01-19T14:30:00Z,27.8888,-97.5696,0.0,18.8,1111122 
TCOON,ioos:station:TCOON:042:1,2013-01-19T15:30:00Z,27.8888,-97.5696,0.0,20.6,1111122 
TCOON,ioos:station:TCOON:042:1,2013-01-19T16:30:00Z,27.8888,-97.5696,0.0,20.1,1111122 
TCOON,ioos:station:TCOON:042:1,2013-01-19T18:00:00Z,27.8888,-97.5696,0.0,20.6,1111122 
TCOON,ioos:station:TCOON:042:1,2013-01-19T19:00:00Z,27.8888,-97.5696,0.0,19.3,1111122 
TCOON,ioos:station:TCOON:042:1,2013-01-19T20:00:00Z,27.8888,-97.5696,0.0,16.5,1111122 
TCOON,ioos:station:TCOON:042:1,2013-01-19T20:30:00Z,27.8888,-97.5696,0.0,20.0,1111122 
TCOON,ioos:station:TCOON:042:1,2013-01-19T21:30:00Z,27.8888,-97.5696,0.0,20.2,1111122 
TCOON,ioos:station:TCOON:042:1,2013-01-19T22:00:00Z,27.8888,-97.5696,0.0,20.3,1111122 
TCOON,ioos:station:TCOON:042:1,2013-01-19T23:00:00Z,27.8888,-97.5696,0.0,19.7,1111122 
TCOON,ioos:station:TCOON:042:1,2013-01-20T00:00:00Z,27.8888,-97.5696,0.0,20.0,1111122 
TCOON,ioos:station:TCOON:042:1,2013-01-20T01:00:00Z,27.8888,-97.5696,0.0,20.8,1111122 
TCOON,ioos:station:TCOON:042:1,2013-01-20T02:00:00Z,27.8888,-97.5696,0.0,20.4,1111122 
TCOON,ioos:station:TCOON:042:1,2013-01-20T02:30:00Z,27.8888,-97.5696,0.0,20.6,1111122 